Погода в Тулдуне

Россия / Республика Бурятия     52°41′13″N   111°34′57″E
темп.,
°C
ветер,
м/с
пор.,
м/с
влажн.,
%
обл.,
%
осадки,
мм/ч
давл.,
гПа
погр.,
м
6 мая, чт
чт623:00+1сз4873100 0.0 1006240
02:000зсз3877100 0.0 1008214
05:00−1з3675100 0.0 1009249
08:00+3з335877 0.0 1010514
11:00+6з4446100 0.0 10081246
14:00+7з764999 0.1 10061490
17:00+6зсз784610 0.0 10071236
20:00+1зсз61159100 0.0 1008676
7 мая, пт
пт723:00−1з5116849 0.0 1007536
02:00−1зсз5968100 0.0 1005510
05:00−1зсз3764100 0.0 1004466
08:00+1ссз4768100 0.4 1004610
11:00+4ссв786695 0.0 10041160
14:00+5ссв6885100 1.3 1005897
17:00+8св465355 1.3 10051514
20:00+4с367457 1.9 1008114
8 мая, сб
сб823:00+2ссз3384100 0.0 101046
02:000ссз228424 0.0 101117
05:00−1зсз11875 0.0 101111
08:00+4юз22655 0.0 1010428
11:00+8юз234896 0.1 10071739
14:00+10з3441100 0.9 10041934
17:00+10з3543100 0.5 10031735
20:00+6св2260100 0.9 100555
9 мая, вс
вс923:00+4ссв367297 0.3 1008162
02:00+1ссв378198 0.3 1010171
05:00+1ссв2386100 0.0 101171
08:00+3св1173100 0.1 1012556
11:00+4в1170100 0.4 1011654
14:00+8ссз1151100 1.0 10081214
17:00+8сз2244100 0.1 10081372
20:00+5с356898 0.3 1010102
10 мая, пн
пн1023:00+3с227549 0.1 101220
02:00+1ссз228167 0.1 101317
05:000с22845 0.0 101413
08:00+6св23595 0.0 1013465
11:00+9всв224161 0.3 10121712
14:00+11с223196 0.3 10102282
17:00+10с6441100 0.1 10111828
20:00+8ссз3660100 0.3 1012275